Voltar ao catálogo

STARLINK-4265

AtivoComunicaçõesVLEO
NORAD 53011·PAYLOAD·🇺🇸 United States

Lançado Jul 7, 2022 de Cape Canaveral Space Force Station

Loading…

Próximas Passagens (próximas 24 horas)

TLE

AtualizadoSource: CelesTrak SupGP

Época: Sep 14, 2026, 14:40 UTC

1 53011C 22076AB  26257.61159722  .00020420  00000+0  60321-3 0  2571
2 53011  53.1594 308.9211 0001316  69.1781 342.2630 15.34385663    11

Acompanhe STARLINK-4265 em tempo real com AllMySat

Download on the App Store